QFA439 YSSY-YMML

Flight info

Callsign QFA439
Flight time 1h 8m
Altitude 36000
Route WOL2 WOL H65 LEECE Q29 ML DCT
Aircraft A21N/M-SDE2E3FGHIRWXY/LB1

Departure

Time 2026-04-26 02:58
Airport Sydney Kingsford Smith International Airport (YSSY)

Arrival

Time 2026-04-26 04:06
Airport Melbourne Airport (YMML)
Time Latitude Longitude Altitude Speed Heading
2026-04-26 02:23 -33.93145 151.17857 33 ft 0 kts 191°
2026-04-26 02:43 -33.93143 151.17857 33 ft 2 kts 191°
2026-04-26 02:43 -33.93118 151.17863 33 ft 4 kts 191°
2026-04-26 02:43 -33.93094 151.17869 32 ft 4 kts 202°
2026-04-26 02:44 -33.93077 151.17886 31 ft 4 kts 262°
2026-04-26 02:44 -33.93078 151.17913 30 ft 1 kts 280°
2026-04-26 02:44 -33.93079 151.17919 30 ft 0 kts 280°
2026-04-26 02:47 -33.93079 151.17917 30 ft 1 kts 280°
2026-04-26 02:47 -33.93076 151.17899 30 ft 3 kts 280°
2026-04-26 02:48 -33.93070 151.17860 32 ft 6 kts 280°
2026-04-26 02:48 -33.93061 151.17800 31 ft 10 kts 280°
2026-04-26 02:48 -33.93029 151.17692 33 ft 16 kts 295°
2026-04-26 02:48 -33.93008 151.17573 33 ft 12 kts 254°
2026-04-26 02:49 -33.93061 151.17529 33 ft 11 kts 204°
2026-04-26 02:49 -33.93154 151.17533 33 ft 18 kts 167°
2026-04-26 02:49 -33.93311 151.17573 33 ft 26 kts 168°
2026-04-26 02:49 -33.93454 151.17585 33 ft 18 kts 185°
2026-04-26 02:50 -33.93587 151.17611 33 ft 23 kts 167°
2026-04-26 02:50 -33.93720 151.17679 33 ft 16 kts 162°
2026-04-26 02:50 -33.93823 151.17708 33 ft 16 kts 155°
2026-04-26 02:50 -33.93906 151.17784 33 ft 15 kts 167°
2026-04-26 02:51 -33.94027 151.17812 32 ft 20 kts 167°
2026-04-26 02:51 -33.94176 151.17850 33 ft 23 kts 167°
2026-04-26 02:51 -33.94342 151.17893 33 ft 25 kts 168°
2026-04-26 02:51 -33.94489 151.17899 33 ft 16 kts 206°
2026-04-26 02:52 -33.94583 151.17896 33 ft 19 kts 167°
2026-04-26 02:52 -33.94749 151.17940 31 ft 27 kts 167°
2026-04-26 02:52 -33.94941 151.17990 33 ft 29 kts 169°
2026-04-26 02:52 -33.95087 151.18037 33 ft 14 kts 137°
2026-04-26 02:53 -33.95098 151.18133 33 ft 10 kts 72°
2026-04-26 02:53 -33.95075 151.18248 32 ft 19 kts 78°
2026-04-26 02:53 -33.95046 151.18407 32 ft 18 kts 77°
2026-04-26 02:53 -33.95086 151.18521 33 ft 15 kts 152°
2026-04-26 02:54 -33.95178 151.18610 33 ft 19 kts 137°
2026-04-26 02:54 -33.95289 151.18706 33 ft 20 kts 155°
2026-04-26 02:54 -33.95426 151.18749 33 ft 21 kts 169°
2026-04-26 02:54 -33.95573 151.18786 33 ft 21 kts 168°
2026-04-26 02:55 -33.95716 151.18822 33 ft 22 kts 167°
2026-04-26 02:55 -33.95871 151.18861 33 ft 24 kts 167°
2026-04-26 02:55 -33.96036 151.18906 33 ft 25 kts 168°
2026-04-26 02:55 -33.96223 151.18954 33 ft 31 kts 168°
2026-04-26 02:56 -33.96455 151.19015 33 ft 37 kts 168°
2026-04-26 02:56 -33.96719 151.19072 33 ft 36 kts 183°
2026-04-26 02:56 -33.96939 151.19092 33 ft 31 kts 166°
2026-04-26 02:56 -33.97098 151.19144 33 ft 14 kts 149°
2026-04-26 02:57 -33.97117 151.19251 32 ft 16 kts 81°
2026-04-26 02:57 -33.97078 151.19373 29 ft 12 kts 21°
2026-04-26 02:57 -33.96977 151.19352 27 ft 25 kts 348°
2026-04-26 02:57 -33.96535 151.19237 28 ft 105 kts 348°
2026-04-26 02:58 -33.95579 151.18990 198 ft 161 kts 348°
2026-04-26 02:58 -33.94499 151.18720 1161 ft 157 kts 354°
2026-04-26 02:58 -33.93466 151.19036 2061 ft 163 kts 41°
2026-04-26 02:58 -33.93076 151.20259 3210 ft 160 kts 91°
2026-04-26 02:59 -33.93406 151.21483 4169 ft 156 kts 112°
2026-04-26 02:59 -33.93821 151.22801 4807 ft 186 kts 100°
2026-04-26 02:59 -33.93954 151.24571 4983 ft 236 kts 89°
2026-04-26 02:59 -33.93917 151.26686 5022 ft 263 kts 86°
2026-04-26 03:00 -33.93834 151.28953 5510 ft 278 kts 86°
2026-04-26 03:00 -33.93747 151.31292 6731 ft 278 kts 87°
2026-04-26 03:00 -33.93668 151.33601 8059 ft 276 kts 89°
2026-04-26 03:00 -33.93849 151.35910 9275 ft 280 kts 103°
2026-04-26 03:01 -33.94604 151.38055 10437 ft 286 kts 124°
2026-04-26 03:01 -33.96067 151.39769 11158 ft 307 kts 150°
2026-04-26 03:01 -33.98164 151.40481 11907 ft 324 kts 179°
2026-04-26 03:01 -34.00378 151.39893 12884 ft 332 kts 206°
2026-04-26 03:02 -34.02247 151.38229 13943 ft 339 kts 223°
2026-04-26 03:02 -34.03945 151.36228 14890 ft 345 kts 224°
2026-04-26 03:02 -34.05679 151.34174 15803 ft 352 kts 224°
2026-04-26 03:02 -34.07472 151.32115 16733 ft 359 kts 223°
2026-04-26 03:03 -34.09295 151.30072 17659 ft 364 kts 222°
2026-04-26 03:03 -34.11177 151.27993 18596 ft 370 kts 221°
2026-04-26 03:03 -34.13101 151.25884 19393 ft 375 kts 221°
2026-04-26 03:03 -34.15054 151.23751 20136 ft 382 kts 221°
2026-04-26 03:04 -34.17041 151.21585 20902 ft 387 kts 221°
2026-04-26 03:04 -34.19052 151.19394 21670 ft 392 kts 221°
2026-04-26 03:04 -34.21089 151.17174 22473 ft 396 kts 221°
2026-04-26 03:04 -34.23147 151.14931 23254 ft 400 kts 221°
2026-04-26 03:05 -34.25199 151.12693 23944 ft 405 kts 222°
2026-04-26 03:05 -34.27301 151.10400 24572 ft 409 kts 221°
2026-04-26 03:05 -34.29420 151.08086 25188 ft 411 kts 222°
2026-04-26 03:05 -34.31556 151.05751 25767 ft 416 kts 222°
2026-04-26 03:06 -34.33704 151.03403 26458 ft 415 kts 222°
2026-04-26 03:06 -34.35807 151.01102 27346 ft 391 kts 222°
2026-04-26 03:06 -34.37804 150.98912 27960 ft 388 kts 223°
2026-04-26 03:06 -34.39783 150.96739 28280 ft 373 kts 222°
2026-04-26 03:07 -34.41652 150.94686 28902 ft 356 kts 223°
2026-04-26 03:07 -34.43487 150.92667 29468 ft 359 kts 223°
2026-04-26 03:07 -34.45365 150.90602 29740 ft 370 kts 223°
2026-04-26 03:07 -34.47298 150.88474 29982 ft 381 kts 223°
2026-04-26 03:08 -34.49290 150.86282 30206 ft 391 kts 223°
2026-04-26 03:08 -34.51336 150.84029 30405 ft 401 kts 223°
2026-04-26 03:08 -34.53425 150.81726 30590 ft 410 kts 223°
2026-04-26 03:08 -34.55453 150.79353 31081 ft 409 kts 228°
2026-04-26 03:09 -34.57265 150.76722 31721 ft 404 kts 232°
2026-04-26 03:09 -34.58967 150.74029 32355 ft 399 kts 234°
2026-04-26 03:09 -34.60610 150.71313 32786 ft 401 kts 234°
2026-04-26 03:09 -34.62255 150.68542 32985 ft 408 kts 234°
2026-04-26 03:10 -34.63928 150.65714 33212 ft 414 kts 234°
2026-04-26 03:10 -34.65622 150.62854 33439 ft 419 kts 235°
2026-04-26 03:10 -34.67344 150.59963 33622 ft 425 kts 234°
2026-04-26 03:10 -34.69102 150.57025 33781 ft 431 kts 234°
2026-04-26 03:11 -34.70882 150.54056 33954 ft 437 kts 234°
2026-04-26 03:11 -34.72683 150.51053 34127 ft 443 kts 234°
2026-04-26 03:11 -34.74511 150.48005 34287 ft 448 kts 234°
2026-04-26 03:11 -34.76356 150.44928 34468 ft 452 kts 234°
2026-04-26 03:12 -34.78190 150.41864 34654 ft 455 kts 234°
2026-04-26 03:12 -34.80056 150.38745 34940 ft 456 kts 234°
2026-04-26 03:12 -34.81918 150.35628 35264 ft 455 kts 234°
2026-04-26 03:12 -34.83786 150.32500 35539 ft 456 kts 234°
2026-04-26 03:13 -34.85652 150.29371 35831 ft 456 kts 234°
2026-04-26 03:13 -34.87514 150.26245 36123 ft 457 kts 234°
2026-04-26 03:13 -34.89380 150.23110 36234 ft 456 kts 234°
2026-04-26 03:13 -34.91242 150.19980 36228 ft 456 kts 235°
2026-04-26 03:14 -34.94965 150.13711 36227 ft 456 kts 235°
2026-04-26 03:14 -34.98685 150.07438 36227 ft 456 kts 235°
2026-04-26 03:15 -35.01767 150.02231 36229 ft 455 kts 235°
2026-04-26 03:15 -35.05477 149.95955 36230 ft 455 kts 235°
2026-04-26 03:16 -35.09158 149.89713 36227 ft 455 kts 235°
2026-04-26 03:16 -35.12854 149.83436 36227 ft 454 kts 235°
2026-04-26 03:17 -35.16541 149.77162 36229 ft 454 kts 236°
2026-04-26 03:17 -35.20218 149.70898 36235 ft 454 kts 236°
2026-04-26 03:18 -35.23892 149.64627 36232 ft 453 kts 236°
2026-04-26 03:18 -35.27559 149.58346 36238 ft 453 kts 236°
2026-04-26 03:19 -35.31232 149.52057 36243 ft 453 kts 236°
2026-04-26 03:19 -35.34898 149.45766 36250 ft 453 kts 236°
2026-04-26 03:20 -35.38557 149.39470 36252 ft 453 kts 236°
2026-04-26 03:20 -35.42214 149.33173 36255 ft 454 kts 236°
2026-04-26 03:21 -35.45851 149.26891 36257 ft 454 kts 236°
2026-04-26 03:21 -35.49509 149.20563 36252 ft 454 kts 236°
2026-04-26 03:22 -35.53168 149.14224 36247 ft 454 kts 236°
2026-04-26 03:22 -35.56816 149.07896 36242 ft 454 kts 236°
2026-04-26 03:23 -35.60469 149.01548 36229 ft 455 kts 236°
2026-04-26 03:23 -35.64093 148.95235 36229 ft 455 kts 236°
2026-04-26 03:24 -35.67740 148.88872 36233 ft 455 kts 236°
2026-04-26 03:24 -35.71381 148.82508 36231 ft 455 kts 236°
2026-04-26 03:25 -35.75020 148.76136 36236 ft 455 kts 236°
2026-04-26 03:25 -35.78655 148.69759 36243 ft 453 kts 236°
2026-04-26 03:26 -35.82271 148.63402 36241 ft 452 kts 236°
2026-04-26 03:26 -35.85884 148.57043 36249 ft 453 kts 236°
2026-04-26 03:27 -35.89465 148.50718 36243 ft 453 kts 236°
2026-04-26 03:27 -35.93062 148.44333 36245 ft 452 kts 237°
2026-04-26 03:28 -35.96642 148.37964 36244 ft 451 kts 237°
2026-04-26 03:28 -36.00214 148.31607 36248 ft 450 kts 236°
2026-04-26 03:29 -36.03787 148.25236 36247 ft 451 kts 237°
2026-04-26 03:29 -36.07352 148.18863 36247 ft 451 kts 236°
2026-04-26 03:30 -36.10923 148.12468 36247 ft 452 kts 237°
2026-04-26 03:30 -36.14498 148.06069 36246 ft 452 kts 236°
2026-04-26 03:31 -36.18055 147.99706 36244 ft 452 kts 236°
2026-04-26 03:31 -36.21635 147.93289 36244 ft 452 kts 237°
2026-04-26 03:32 -36.25211 147.86869 36239 ft 453 kts 237°
2026-04-26 03:32 -36.28791 147.80426 36235 ft 453 kts 237°
2026-04-26 03:33 -36.32372 147.73970 36234 ft 453 kts 237°
2026-04-26 03:33 -36.35940 147.67512 36238 ft 453 kts 237°
2026-04-26 03:34 -36.39504 147.61047 36235 ft 455 kts 237°
2026-04-26 03:34 -36.43074 147.54557 36238 ft 455 kts 237°
2026-04-26 03:35 -36.46643 147.48056 36233 ft 455 kts 237°
2026-04-26 03:35 -36.50188 147.41586 36231 ft 455 kts 237°
2026-04-26 03:36 -36.53752 147.35071 36234 ft 456 kts 238°
2026-04-26 03:36 -36.57320 147.28536 36230 ft 457 kts 238°
2026-04-26 03:37 -36.60889 147.21988 36229 ft 457 kts 238°
2026-04-26 03:37 -36.64429 147.15480 36228 ft 457 kts 238°
2026-04-26 03:38 -36.67989 147.08922 36231 ft 457 kts 238°
2026-04-26 03:38 -36.71544 147.02364 36062 ft 453 kts 238°
2026-04-26 03:39 -36.73296 146.99131 35458 ft 448 kts 238°
2026-04-26 03:39 -36.75030 146.95923 34758 ft 446 kts 238°
2026-04-26 03:39 -36.76766 146.92705 33955 ft 446 kts 238°
2026-04-26 03:39 -36.78494 146.89497 33032 ft 446 kts 238°
2026-04-26 03:40 -36.80231 146.86270 32061 ft 449 kts 238°
2026-04-26 03:40 -36.81973 146.83031 31094 ft 450 kts 238°
2026-04-26 03:40 -36.83730 146.79764 29971 ft 456 kts 238°
2026-04-26 03:40 -36.85491 146.76486 29121 ft 452 kts 238°
2026-04-26 03:41 -36.87231 146.73247 28370 ft 446 kts 238°
2026-04-26 03:41 -36.88951 146.70045 27644 ft 441 kts 238°
2026-04-26 03:41 -36.90657 146.66865 26604 ft 443 kts 238°
2026-04-26 03:41 -36.92360 146.63681 25503 ft 448 kts 238°
2026-04-26 03:42 -36.94094 146.60437 24628 ft 447 kts 238°
2026-04-26 03:42 -36.95810 146.57225 23851 ft 443 kts 238°
2026-04-26 03:42 -36.97514 146.54035 22867 ft 439 kts 238°
2026-04-26 03:42 -36.99221 146.50831 21461 ft 446 kts 238°
2026-04-26 03:43 -37.00951 146.47581 20134 ft 451 kts 238°
2026-04-26 03:43 -37.02689 146.44316 19072 ft 449 kts 238°
2026-04-26 03:43 -37.04410 146.41082 18052 ft 444 kts 238°
2026-04-26 03:43 -37.06111 146.37884 17045 ft 438 kts 239°
2026-04-26 03:44 -37.07783 146.34741 16144 ft 429 kts 239°
2026-04-26 03:44 -37.09417 146.31660 15278 ft 420 kts 239°
2026-04-26 03:44 -37.11006 146.28667 14796 ft 401 kts 238°
2026-04-26 03:44 -37.12492 146.25871 14339 ft 368 kts 238°
2026-04-26 03:45 -37.13855 146.23300 13900 ft 340 kts 239°
2026-04-26 03:45 -37.15120 146.20912 13323 ft 319 kts 239°
2026-04-26 03:45 -37.16323 146.18631 12514 ft 309 kts 239°
2026-04-26 03:45 -37.17492 146.16407 11704 ft 302 kts 239°
2026-04-26 03:46 -37.18635 146.14226 10856 ft 296 kts 238°
2026-04-26 03:46 -37.19742 146.12116 10088 ft 291 kts 238°
2026-04-26 03:46 -37.20850 146.10006 9469 ft 281 kts 239°
2026-04-26 03:47 -37.22974 146.05975 9220 ft 278 kts 239°
2026-04-26 03:47 -37.24034 146.03953 9217 ft 278 kts 239°
2026-04-26 03:47 -37.25098 146.01920 9210 ft 280 kts 239°
2026-04-26 03:47 -37.26169 145.99880 9211 ft 280 kts 239°
2026-04-26 03:48 -37.27250 145.97835 9215 ft 280 kts 239°
2026-04-26 03:48 -37.28326 145.95791 9215 ft 280 kts 239°
2026-04-26 03:48 -37.29395 145.93752 9271 ft 280 kts 239°
2026-04-26 03:48 -37.30467 145.91702 9318 ft 280 kts 239°
2026-04-26 03:49 -37.31542 145.89649 9323 ft 280 kts 239°
2026-04-26 03:49 -37.32611 145.87611 9319 ft 279 kts 239°
2026-04-26 03:49 -37.33676 145.85575 9314 ft 279 kts 238°
2026-04-26 03:49 -37.34738 145.83549 8902 ft 276 kts 241°
2026-04-26 03:50 -37.35792 145.81539 8363 ft 274 kts 240°
2026-04-26 03:50 -37.36846 145.79528 7821 ft 276 kts 239°
2026-04-26 03:50 -37.37889 145.77548 7289 ft 276 kts 239°
2026-04-26 03:50 -37.38953 145.75526 6741 ft 277 kts 240°
2026-04-26 03:51 -37.40010 145.73506 6242 ft 276 kts 240°
2026-04-26 03:51 -37.41062 145.71491 5711 ft 275 kts 240°
2026-04-26 03:51 -37.42106 145.69492 5375 ft 272 kts 240°
2026-04-26 03:51 -37.43143 145.67499 5314 ft 272 kts 240°
2026-04-26 03:52 -37.44183 145.65503 5317 ft 273 kts 240°
2026-04-26 03:52 -37.45214 145.63520 5297 ft 269 kts 240°
2026-04-26 03:52 -37.46246 145.61543 5318 ft 270 kts 240°
2026-04-26 03:52 -37.47269 145.59590 5316 ft 270 kts 240°
2026-04-26 03:53 -37.48314 145.57582 5301 ft 270 kts 240°
2026-04-26 03:53 -37.49331 145.55627 5308 ft 271 kts 241°
2026-04-26 03:53 -37.50365 145.53650 5287 ft 270 kts 240°
2026-04-26 03:53 -37.51395 145.51666 5297 ft 270 kts 240°
2026-04-26 03:54 -37.52437 145.49682 5310 ft 271 kts 240°
2026-04-26 03:54 -37.53479 145.47703 5296 ft 271 kts 240°
2026-04-26 03:54 -37.54520 145.45716 5293 ft 271 kts 240°
2026-04-26 03:54 -37.55572 145.43734 5292 ft 273 kts 241°
2026-04-26 03:55 -37.56642 145.41765 5293 ft 272 kts 240°
2026-04-26 03:55 -37.57715 145.39797 5306 ft 272 kts 240°
2026-04-26 03:55 -37.58789 145.37827 5286 ft 272 kts 241°
2026-04-26 03:55 -37.59865 145.35865 5294 ft 271 kts 240°
2026-04-26 03:56 -37.60935 145.33908 5280 ft 271 kts 240°
2026-04-26 03:56 -37.62000 145.31958 4864 ft 269 kts 241°
2026-04-26 03:56 -37.63063 145.30023 4277 ft 273 kts 240°
2026-04-26 03:56 -37.64122 145.28095 3960 ft 258 kts 240°
2026-04-26 03:57 -37.65114 145.26284 3496 ft 247 kts 240°
2026-04-26 03:57 -37.66079 145.24535 3085 ft 238 kts 240°
2026-04-26 03:57 -37.66985 145.22825 2622 ft 232 kts 242°
2026-04-26 03:57 -37.67900 145.21152 2134 ft 230 kts 234°
2026-04-26 03:58 -37.68903 145.19605 1802 ft 224 kts 236°
2026-04-26 03:58 -37.69753 145.17980 1417 ft 225 kts 248°
2026-04-26 03:58 -37.70486 145.16231 1297 ft 216 kts 247°
2026-04-26 03:58 -37.71134 145.14660 1265 ft 187 kts 247°
2026-04-26 03:59 -37.71688 145.13318 1255 ft 158 kts 249°
2026-04-26 03:59 -37.72170 145.12090 1271 ft 158 kts 251°
2026-04-26 03:59 -37.72483 145.10756 1274 ft 157 kts 269°
2026-04-26 03:59 -37.72588 145.09405 1271 ft 153 kts 275°
2026-04-26 04:00 -37.72631 145.08057 1260 ft 156 kts 275°
2026-04-26 04:00 -37.72663 145.06669 1327 ft 156 kts 274°
2026-04-26 04:00 -37.72689 145.05783 1276 ft 148 kts 274°
2026-04-26 04:00 -37.72754 145.04071 1227 ft 147 kts 273°
2026-04-26 04:01 -37.72798 145.03209 1222 ft 150 kts 270°
2026-04-26 04:01 -37.72908 145.01469 1271 ft 150 kts 272°
2026-04-26 04:01 -37.72997 145.00155 1276 ft 152 kts 270°
2026-04-26 04:01 -37.73089 144.98827 1334 ft 149 kts 271°
2026-04-26 04:02 -37.73159 144.97951 1403 ft 148 kts 275°
2026-04-26 04:02 -37.73251 144.96665 1497 ft 148 kts 277°
2026-04-26 04:02 -37.73288 144.95357 1514 ft 149 kts 286°
2026-04-26 04:02 -37.73262 144.94056 1495 ft 147 kts 288°
2026-04-26 04:03 -37.73192 144.92754 1557 ft 148 kts 287°
2026-04-26 04:03 -37.73100 144.91461 1515 ft 148 kts 283°
2026-04-26 04:03 -37.72993 144.90162 1435 ft 150 kts 286°
2026-04-26 04:03 -37.72881 144.88851 1401 ft 150 kts 284°
2026-04-26 04:04 -37.72753 144.87587 1300 ft 137 kts 289°
2026-04-26 04:04 -37.72465 144.86487 1193 ft 130 kts 303°
2026-04-26 04:04 -37.71962 144.85575 1142 ft 124 kts 321°
2026-04-26 04:04 -37.71312 144.84905 1013 ft 121 kts 334°
2026-04-26 04:05 -37.70534 144.84529 802 ft 123 kts 348°
2026-04-26 04:05 -37.69677 144.84292 640 ft 126 kts
2026-04-26 04:05 -37.68817 144.84145 426 ft 125 kts 349°
2026-04-26 04:05 -37.67979 144.83979 363 ft 112 kts
2026-04-26 04:06 -37.67351 144.83872 373 ft 63 kts 352°
2026-04-26 04:06 -37.67041 144.83834 384 ft 33 kts
2026-04-26 04:06 -37.66848 144.83910 386 ft 23 kts 22°
2026-04-26 04:06 -37.66793 144.83941 386 ft 0 kts 31°
2026-04-26 04:07 -37.66789 144.83944 386 ft 2 kts 31°
2026-04-26 04:07 -37.66771 144.83957 386 ft 4 kts 31°
2026-04-26 04:07 -37.66750 144.83969 386 ft 7 kts 19°
2026-04-26 04:07 -37.66658 144.84007 386 ft 20 kts 18°
2026-04-26 04:08 -37.66546 144.84128 379 ft 28 kts 79°
2026-04-26 04:08 -37.66522 144.84361 364 ft 14 kts 98°
2026-04-26 04:08 -37.66502 144.84511 361 ft 26 kts 80°
2026-04-26 04:08 -37.66480 144.84738 335 ft 23 kts 95°
2026-04-26 04:09 -37.66563 144.84801 336 ft 20 kts 180°
2026-04-26 04:09 -37.66680 144.84805 349 ft 13 kts 168°
2026-04-26 04:09 -37.66723 144.84866 352 ft 7 kts 79°
2026-04-26 04:09 -37.66719 144.84892 353 ft 0 kts 80°